Date String (YYYY-MM-DD hh:mm:ss) UTC,Instrument flags,Ambient pressure (hPa),Sample flow (lpm),Bypass flow (lpm),Sample temperature (°C),Ambient temperature (°C),ASC tube jacket temperature (°C),LED temperature (°C),Box temperature (°C),Sample RH (%),Span deviation,Mass concentration (μg/m³),Mass concentration (μg/m³),Mass concentration (μg/m³)
DateTimeUTC,F1_M11,P_M11,Q1_M11,Q2_M11,T1_M11,T2_M11,T3_M11,T4_M11,T5_M11,U1_M11,ZSPAN_M11,X0_M11,X2_M11,X1_M11
2021-12-29 02:00:00,,0812.2,5.00,0.00,22.2,21.6,00.0,31.3,24.0,06.0,0000.0,0013.05,0003.02,0001.00
2021-12-29 02:01:00,,0812.2,5.00,0.00,22.3,22.3,00.0,31.3,24.2,06.0,0000.0,0013.13,0002.97,0001.00
2021-12-29 02:02:00,,0812.2,5.00,0.00,22.5,23.1,00.0,31.4,24.4,05.9,0000.0,0013.11,0002.92,0000.98
2021-12-29 02:03:00,,0812.2,4.99,0.00,22.6,23.1,00.0,31.4,24.6,05.9,0000.0,0012.81,0002.93,0000.97
2021-12-29 02:04:00,,0812.1,5.01,0.00,22.6,22.9,00.0,31.4,24.5,05.9,0000.0,0012.39,0002.84,0000.95
2021-12-29 02:05:00,,0812.1,4.99,0.00,22.6,22.7,00.0,31.4,24.5,05.9,0000.0,0011.40,0002.77,0000.92
2021-12-29 02:06:00,,0812.1,5.00,0.00,22.6,22.5,00.0,31.4,24.4,05.9,0000.0,0010.99,0002.66,0000.89
2021-12-29 02:07:00,,0812.1,4.99,0.00,22.6,22.4,00.0,31.5,24.3,05.9,0000.0,0011.16,0002.62,0000.86
2021-12-29 02:08:00,,0812.1,5.02,0.00,22.6,22.3,00.0,31.5,24.3,05.9,0000.0,0011.37,0002.61,0000.84
2021-12-29 02:09:00,,0812.1,4.99,0.00,22.6,22.2,00.0,31.5,24.2,05.9,0000.0,0010.91,0002.62,0000.83
2021-12-29 02:10:00,,0812.1,5.02,0.00,22.5,22.1,00.0,31.5,24.2,05.9,0000.0,0010.26,0002.67,0000.81
2021-12-29 02:11:00,,0812.1,5.00,0.00,22.5,22.0,00.0,31.5,24.2,05.9,0000.0,0009.43,0002.64,0000.79
2021-12-29 02:12:00,,0812.1,4.99,0.00,22.5,22.0,00.0,31.5,24.2,05.9,0000.0,0009.22,0002.61,0000.77
2021-12-29 02:13:00,,0812.0,5.00,0.00,22.5,21.9,00.0,31.5,24.2,05.9,0000.0,0010.37,0002.56,0000.77
2021-12-29 02:14:00,,0812.0,5.01,0.00,22.5,21.8,00.0,31.5,24.2,05.9,0000.0,0010.18,0002.45,0000.76
2021-12-29 02:15:00,,0812.0,5.00,0.00,22.5,21.8,00.0,31.5,24.2,05.9,0000.0,0011.05,0002.51,0000.76
2021-12-29 02:16:00,,0812.0,5.00,0.00,22.5,21.8,00.0,31.5,24.2,05.9,0000.0,0011.27,0002.48,0000.76
2021-12-29 02:17:00,,0812.0,4.98,0.00,22.5,21.8,00.0,31.5,24.2,05.9,0000.0,0011.98,0002.41,0000.77
2021-12-29 02:18:00,,0812.0,5.02,0.00,22.5,21.7,00.0,31.5,24.2,05.9,0000.0,0012.15,0002.39,0000.79
2021-12-29 02:19:00,,0812.0,5.00,0.00,22.5,21.7,00.0,31.5,24.1,06.0,0000.0,0013.27,0002.48,0000.81
2021-12-29 02:20:00,,0812.1,5.00,0.00,22.4,21.7,00.0,31.4,24.1,06.0,0000.0,0014.78,0002.47,0000.81
2021-12-29 02:21:00,,0812.1,5.00,0.00,22.4,21.7,00.0,31.4,24.1,06.0,0000.0,0014.61,0002.43,0000.83
2021-12-29 02:22:00,,0812.0,5.00,0.00,22.4,21.7,00.0,31.4,24.1,06.0,0000.0,0014.60,0002.39,0000.83
2021-12-29 02:23:00,,0812.0,4.99,0.00,22.4,21.7,00.0,31.4,24.1,06.0,0000.0,0014.88,0002.37,0000.84
2021-12-29 02:24:00,,0812.1,5.00,0.00,22.4,21.7,00.0,31.4,24.1,06.0,0000.0,0013.82,0002.40,0000.85
2021-12-29 02:25:00,,0812.0,5.01,0.00,22.4,21.6,00.0,31.4,24.1,06.0,0000.0,0014.01,0002.48,0000.88
2021-12-29 02:26:00,,0812.1,4.99,0.00,22.4,21.6,00.0,31.4,24.1,06.0,0000.0,0014.97,0002.52,0000.89
2021-12-29 02:27:00,,0812.0,5.01,0.00,22.4,21.6,00.0,31.4,24.1,06.0,0000.0,0015.34,0002.51,0000.89
2021-12-29 02:28:00,,0812.1,5.00,0.00,22.4,21.6,00.0,31.4,24.1,06.0,0000.0,0015.02,0002.47,0000.89
2021-12-29 02:29:00,,0812.0,4.99,0.00,22.4,21.6,00.0,31.4,24.1,06.0,0000.0,0014.63,0002.51,0000.89
2021-12-29 02:30:00,,0812.0,5.02,0.00,22.4,21.6,00.0,31.4,24.1,06.0,0000.0,0013.71,0002.44,0000.89
2021-12-29 02:31:00,,0812.0,4.99,0.00,22.3,21.5,00.0,31.4,24.0,06.0,0000.0,0012.06,0002.49,0000.87
2021-12-29 02:32:00,,0812.0,5.00,0.00,22.3,21.5,00.0,31.4,24.0,06.0,0000.0,0012.09,0002.50,0000.86
2021-12-29 02:33:00,,0812.0,5.00,0.00,22.3,21.6,00.0,31.4,24.0,06.0,0000.0,0012.41,0002.54,0000.87
2021-12-29 02:34:00,,0812.1,5.01,0.00,22.4,22.2,00.0,31.4,24.2,06.0,0000.0,0013.42,0002.63,0000.87
2021-12-29 02:35:00,,0812.0,5.00,0.00,22.5,23.0,00.0,31.4,24.4,05.9,0000.0,0013.66,0002.60,0000.88
2021-12-29 02:36:00,,0812.0,5.00,0.00,22.7,23.1,00.0,31.4,24.6,05.9,0000.0,0014.12,0002.55,0000.88
2021-12-29 02:37:00,,0812.0,5.00,0.00,22.7,22.9,00.0,31.5,24.6,05.8,0000.0,0012.93,0002.55,0000.88
2021-12-29 02:38:00,,0812.1,5.02,0.00,22.7,22.7,00.0,31.5,24.5,05.9,0000.0,0012.63,0002.58,0000.91
2021-12-29 02:39:00,,0812.0,5.00,0.00,22.7,22.6,00.0,31.5,24.5,05.9,0000.0,0013.18,0002.74,0000.95
2021-12-29 02:40:00,,0812.1,5.00,0.00,22.7,22.5,00.0,31.5,24.5,05.9,0000.0,0014.35,0002.79,0000.97
2021-12-29 02:41:00,,0812.0,5.00,0.00,22.7,22.3,00.0,31.5,24.4,05.9,0000.0,0014.59,0002.88,0001.00
2021-12-29 02:42:00,,0812.1,4.99,0.00,22.7,22.2,00.0,31.5,24.4,05.9,0000.0,0014.67,0002.96,0001.03
2021-12-29 02:43:00,,0812.0,4.99,0.00,22.7,22.2,00.0,31.5,24.4,05.9,0000.0,0014.53,0003.06,0001.07
2021-12-29 02:44:00,,0812.1,5.00,0.00,22.7,22.1,00.0,31.5,24.4,05.9,0000.0,0014.85,0003.13,0001.12
2021-12-29 02:45:00,,0812.1,5.01,0.00,22.7,22.0,00.0,31.5,24.4,06.0,0000.0,0013.97,0003.18,0001.17
2021-12-29 02:46:00,,0812.1,5.00,0.00,22.6,22.0,00.0,31.5,24.3,06.0,0000.0,0014.15,0003.25,0001.22
2021-12-29 02:47:00,,0812.1,4.99,0.00,22.6,21.9,00.0,31.5,24.3,06.0,0000.0,0013.14,0003.25,0001.25
2021-12-29 02:48:00,,0812.1,4.99,0.00,22.6,21.9,00.0,31.5,24.3,06.0,0000.0,0013.78,0003.26,0001.30
2021-12-29 02:49:00,,0812.1,5.00,0.00,22.6,21.9,00.0,31.5,24.3,06.1,0000.0,0014.38,0003.28,0001.33
2021-12-29 02:50:00,,0812.0,5.01,0.00,22.6,21.8,00.0,31.5,24.3,06.1,0000.0,0014.08,0003.24,0001.34
2021-12-29 02:51:00,,0812.0,5.00,0.00,22.6,21.8,00.0,31.5,24.2,06.1,0000.0,0013.26,0003.22,0001.35
2021-12-29 02:52:00,,0812.0,5.00,0.00,22.6,21.8,00.0,31.5,24.2,06.1,0000.0,0013.83,0003.22,0001.34
2021-12-29 02:53:00,,0812.0,5.00,0.00,22.5,21.8,00.0,31.5,24.2,06.1,0000.0,0013.72,0003.18,0001.34
2021-12-29 02:54:00,,0811.8,5.01,0.00,22.5,21.7,00.0,31.5,24.2,06.1,0000.0,0013.96,0003.17,0001.35
2021-12-29 02:55:00,,0811.8,5.00,0.00,22.5,21.7,00.0,31.5,24.2,06.1,0000.0,0013.81,0003.18,0001.34
2021-12-29 02:56:00,,0811.8,4.99,0.00,22.5,21.7,00.0,31.5,24.2,06.1,0000.0,0013.52,0003.13,0001.30
2021-12-29 02:57:00,,0811.8,5.01,0.00,22.5,21.7,00.0,31.5,24.2,06.1,0000.0,0014.51,0003.14,0001.26
2021-12-29 02:58:00,,0811.8,5.00,0.00,22.5,21.6,00.0,31.5,24.1,06.1,0000.0,0015.18,0003.19,0001.24
2021-12-29 02:59:00,,0811.8,4.99,0.00,22.4,21.6,00.0,31.5,24.1,06.1,0000.0,0014.90,0003.18,0001.22
